Regional Weather Roundup
Issued by NWS

Home | Current Version | Previous Version | Text Only | Print | Product List | Glossary On
Versions: 1 2 3 4 5 6 7 8 9 10 11 12 13 14 15 16 17 18 19 20 21 22 23 24 25 26 27 28 29 30 31 32 33 34 35 36 37 38 39 40 41 42 43 44 45 46 47 48 49 50
000
ASUS42 KFFC 251603
RWRGA
WEATHER ROUNDUP FOR GEORGIA
NATIONAL WEATHER SERVICE PEACHTREE CITY GA
1200 PM EDT MON JUL 25 2016

NOTE: "FAIR" INDICATES FEW OR NO CLOUDS BELOW 12,000 FEET WITH NO
SIGNIFICANT WEATHER AND/OR OBSTRUCTIONS TO VISIBILITY.

* = USE WITH CAUTION. THE STATIONS MARKED WITH AN ASTERISK MAY NOT
REPORT WEATHER SUCH AS PRECIPITATION, FOG, OR THUNDER AND ARE NOT
QUALITY CONTROLLED BY NWS.

THE REMARK "TC" DENOTES TEMPERATURE READING IN DEGREES CELSIUS.

GAZ001>058-251700-
NORTH GEORGIA

CITY           SKY/WX    TMP DP  RH WIND       PRES   REMARKS
ATLANTA        MOSUNNY   92  71  50 NW7       30.09F HX  98
ATHENS         SUNNY     94  72  48 CALM      30.08F HX 102
CHAMBLEE       SUNNY     92  71  50 NE3       30.09F HX  98
PEACHTREE CITY SUNNY     91  70  49 VRB6      30.09F HX  96
ROME           MOSUNNY   92  70  48 SW7       30.06F HX  97
WEST ATLANTA   MOSUNNY   91  71  51 NW3       30.08F HX  97
GAINESVILLE    SUNNY     90  69  50 W6        30.11F HX  94
CARTERSVILLE   MOSUNNY   90  71  53 CALM      30.09S HX  96


CITY           SKY/WX    TMP DP  RH WIND       PRES   REMARKS
DALTON*        SUNNY     90  72  55 S3        30.07F HX  96
MARIETTA       MOSUNNY   90  72  55 N2        30.09F HX  96
KENNESAW*      SUNNY     88  73  62 SW3       30.04F HX  96
CANTON*        MOSUNNY   90  61  37 NW3       30.12R
BLAIRSVILLE*     N/A    N/A N/A N/A MISG      30.15S
$$

GAZ059>098-102>109-251700-
CENTRAL GEORGIA

CITY           SKY/WX    TMP DP  RH WIND       PRES   REMARKS
AUGUSTA-BUSH   MOSUNNY   95  72  47 SE8       30.05F HX 103
AUGUSTA-DANIEL MOSUNNY   92  73  53 SE5       30.08F HX 100
COLUMBUS       MOSUNNY   90  70  51 VRB3      30.07S HX  95
MACON          SUNNY     91  72  53 VRB5      30.06F HX  98
ROBINS AFB     SUNNY     93  72  50 E6        30.06S HX 101


CITY           SKY/WX    TMP DP  RH WIND       PRES   REMARKS
LAGRANGE*      SUNNY     92  78  62 W3        30.09S HX 107
MILLEDGEVILLE* SUNNY     93  75  55 NW3       30.07S HX 104
$$

GAZ099>101-110>166-251700-
SOUTH GEORGIA

CITY           SKY/WX    TMP DP  RH WIND       PRES   REMARKS
SAVANNAH       MOSUNNY   90  70  51 SW8       30.09S HX  95
VALDOSTA       MOSUNNY   87  73  62 CALM      30.09R HX  94
ALMA           SUNNY     89  73  59 S6        30.09S HX  97
ST SIMONS      SUNNY     89  71  55 SE9G16    30.10R HX  95
FT STEWART     SUNNY     88  73  62 SE1       30.07S HX  96
ALBANY         SUNNY     91  73  55 SE6       30.09F HX  99
HUNTER AFB     SUNNY     90  76  64 VRB2      30.07S HX 101
MOODY AFB      SUNNY     87  74  65 VRB3      30.08S HX  96
BRUNSWICK      MOSUNNY   91  72  52 SE5       30.10S HX  98


CITY           SKY/WX    TMP DP  RH WIND       PRES   REMARKS
BAINBRIDGE*    MOSUNNY   91  77  62 CALM      30.07F HX 105
MOULTRIE*      MOSUNNY   86  75  70 CALM      30.10S HX  95
VIDALIA*       SUNNY     91  70  49 SE3       30.08F HX  97
WAYCROSS*      MOSUNNY   92  78  62 NE5       30.08F HX 108
DOUGLAS*       SUNNY     88  70  55 N3        30.10S HX  92
$$



USA.gov is the U.S. government's official web portal to all federal, state and local government web resources and services.